Location: Godiavel Galaoual
(15.2485°N, 12.6604°W)
Time: 04:07:42
(UTC+00:00)

BUGSAT 1 - Pass Details

Date: 03 August 2021
Orbit: 558 x 601 km, 98.1° (Epoch: 26 September)

Event Time Altitude Azimuth Distance (km) Brightness Sun altitude
Rises 05:01:05 0° 16° (NNE) 2,825 ? -21.5°
Reaches altitude 10° 05:03:15 10° 19° (NNE) 1,928 ? -21.0°
Maximum altitude 05:07:25 65° 102° (ESE) 660 ? -20.1°
Enters shadow 05:10:23 19° 180° (S) 1,454 ? -19.5°
